iso_date,epoch_date,Year,Hour,Min,DOY,POS_DOY,Lat,Lon,BP,Ts,Ta,has_bp,has_ts,has_ta,BuoyID,Buoy_Type,Buoy_Owner,Logistics,Hemisphere
2015-09-03T16:06:14Z,1441296374,2015,16,6,246.671,246.671,79.99841,126.01271,1010.0,-999.00,-1.1,yes,no,yes,48737,O-Buoy,Bigelow,unknown,North
2015-09-03T17:00:57Z,1441299658,2015,17,1,246.709,246.709,79.99976,126.03831,1014.0,-999.00,-1.5,yes,no,yes,48737,O-Buoy,Bigelow,unknown,North
2015-09-03T18:01:26Z,1441303286,2015,18,1,246.751,246.751,80.00339,126.07592,1010.0,-999.00,-1.6,yes,no,yes,48737,O-Buoy,Bigelow,unknown,North
2015-09-03T19:00:28Z,1441306829,2015,19,1,246.792,246.792,80.01115,126.11337,1010.0,-999.00,-1.6,yes,no,yes,48737,O-Buoy,Bigelow,unknown,North
2015-09-03T20:00:57Z,1441310458,2015,20,1,246.834,246.834,80.17958,125.94475,1011.0,-999.00,-1.8,yes,no,yes,48737,O-Buoy,Bigelow,unknown,North
2015-09-03T21:01:26Z,1441314086,2015,21,1,246.876,246.876,80.22897,125.94772,1011.0,-999.00,-1.9,yes,no,yes,48737,O-Buoy,Bigelow,unknown,North
2015-09-03T22:00:28Z,1441317629,2015,22,1,246.917,246.917,80.26557,125.97409,1011.0,-999.00,-2.2,yes,no,yes,48737,O-Buoy,Bigelow,unknown,North
2015-09-03T23:00:57Z,1441321258,2015,23,1,246.959,246.959,80.44442,125.89245,1010.0,-999.00,-2.1,yes,no,yes,48737,O-Buoy,Bigelow,unknown,North
2015-09-04T00:01:26Z,1441324886,2015,0,1,247.001,247.001,80.45828,125.9267,1011.0,-999.00,-1.7,yes,no,yes,48737,O-Buoy,Bigelow,unknown,North
2015-09-04T01:00:28Z,1441328429,2015,1,1,247.042,247.042,80.55997,125.91493,1010.0,-999.00,-1.9,yes,no,yes,48737,O-Buoy,Bigelow,unknown,North
2015-09-04T02:00:57Z,1441332058,2015,2,1,247.084,247.084,80.67753,125.84559,1010.0,-999.00,-1.9,yes,no,yes,48737,O-Buoy,Bigelow,unknown,North
2015-09-04T03:01:26Z,1441335686,2015,3,1,247.126,247.126,80.68015,125.90719,1010.0,-999.00,-1.6,yes,no,yes,48737,O-Buoy,Bigelow,unknown,North
2015-09-04T04:00:28Z,1441339229,2015,4,1,247.167,247.167,80.83824,125.76439,1010.0,-999.00,-1.4,yes,no,yes,48737,O-Buoy,Bigelow,unknown,North
2015-09-04T05:00:57Z,1441342858,2015,5,1,247.209,247.209,80.91592,125.75696,1013.0,-999.00,-1.1,yes,no,yes,48737,O-Buoy,Bigelow,unknown,North
2015-09-04T06:01:26Z,1441346486,2015,6,1,247.251,247.251,80.92375,125.78887,1009.0,-999.00,-0.7,yes,no,yes,48737,O-Buoy,Bigelow,unknown,North
2015-09-04T07:00:28Z,1441350029,2015,7,1,247.292,247.292,81.08302,125.719,1008.0,-999.00,-0.7,yes,no,yes,48737,O-Buoy,Bigelow,unknown,North
2015-09-04T08:00:57Z,1441353658,2015,8,1,247.334,247.334,81.13419,125.71304,1007.0,-999.00,-0.4,yes,no,yes,48737,O-Buoy,Bigelow,unknown,North
2015-09-04T09:01:26Z,1441357286,2015,9,1,247.376,247.376,81.14827,125.72019,1007.0,-999.00,0.6,yes,no,yes,48737,O-Buoy,Bigelow,unknown,North
2015-09-04T10:00:28Z,1441360829,2015,10,1,247.417,247.417,81.1639,125.74121,1007.0,-999.00,-0.2,yes,no,yes,48737,O-Buoy,Bigelow,unknown,North
2015-09-04T11:00:57Z,1441364458,2015,11,1,247.459,247.459,81.1347,125.71281,1005.0,-999.00,0.1,yes,no,yes,48737,O-Buoy,Bigelow,unknown,North
2015-09-04T12:01:26Z,1441368086,2015,12,1,247.501,247.501,81.13487,125.7141,1004.0,-999.00,0.0,yes,no,yes,48737,O-Buoy,Bigelow,unknown,North
2015-09-04T13:00:28Z,1441371629,2015,13,1,247.542,247.542,81.13287,125.69594,1003.0,-999.00,0.0,yes,no,yes,48737,O-Buoy,Bigelow,unknown,North
2015-09-04T14:00:57Z,1441375258,2015,14,1,247.584,247.584,81.12543,125.66733,1002.0,-999.00,-0.4,yes,no,yes,48737,O-Buoy,Bigelow,unknown,North
2015-09-04T15:01:26Z,1441378886,2015,15,1,247.626,247.626,81.19067,125.63913,1001.0,-999.00,-0.5,yes,no,yes,48737,O-Buoy,Bigelow,unknown,North
2015-09-04T16:00:28Z,1441382429,2015,16,1,247.667,247.667,81.42255,125.44783,1000.0,-999.00,-0.5,yes,no,yes,48737,O-Buoy,Bigelow,unknown,North
2015-09-04T17:00:57Z,1441386058,2015,17,1,247.709,247.709,81.61253,125.15746,1001.0,-999.00,-0.5,yes,no,yes,48737,O-Buoy,Bigelow,unknown,North
2015-09-04T18:01:26Z,1441389686,2015,18,1,247.751,247.751,81.73354,125.09661,996.0,-999.00,-0.5,yes,no,yes,48737,O-Buoy,Bigelow,unknown,North
2015-09-04T19:00:28Z,1441393229,2015,19,1,247.792,247.792,82.00101,124.81116,994.0,-999.00,-0.5,yes,no,yes,48737,O-Buoy,Bigelow,unknown,North
2015-09-04T20:00:57Z,1441396858,2015,20,1,247.834,247.834,82.17284,124.60995,992.0,-999.00,-0.6,yes,no,yes,48737,O-Buoy,Bigelow,unknown,North
2015-09-04T21:01:26Z,1441400486,2015,21,1,247.876,247.876,82.27895,124.55923,991.0,-999.00,-0.5,yes,no,yes,48737,O-Buoy,Bigelow,unknown,North
2015-09-04T22:00:28Z,1441404029,2015,22,1,247.917,247.917,82.37025,124.5076,990.0,-999.00,-0.5,yes,no,yes,48737,O-Buoy,Bigelow,unknown,North
2015-09-04T23:00:57Z,1441407658,2015,23,1,247.959,247.959,82.4539,123.92924,989.0,-999.00,-0.5,yes,no,yes,48737,O-Buoy,Bigelow,unknown,North
2015-09-05T00:01:26Z,1441411286,2015,0,1,248.001,248.001,82.53824,124.00536,987.0,-999.00,-0.5,yes,no,yes,48737,O-Buoy,Bigelow,unknown,North
2015-09-05T01:00:28Z,1441414829,2015,1,1,248.042,248.042,82.59653,123.97803,986.0,-999.00,-0.5,yes,no,yes,48737,O-Buoy,Bigelow,unknown,North
2015-09-05T02:00:57Z,1441418458,2015,2,1,248.084,248.084,82.66273,124.19703,986.0,-999.00,-0.7,yes,no,yes,48737,O-Buoy,Bigelow,unknown,North
2015-09-05T03:01:26Z,1441422086,2015,3,1,248.126,248.126,82.70175,124.42136,985.0,-999.00,-0.7,yes,no,yes,48737,O-Buoy,Bigelow,unknown,North
2015-09-05T04:00:28Z,1441425629,2015,4,1,248.167,248.167,82.75893,124.46455,985.0,-999.00,-0.8,yes,no,yes,48737,O-Buoy,Bigelow,unknown,North
2015-09-05T05:00:57Z,1441429258,2015,5,1,248.209,248.209,82.76184,124.3428,988.0,-999.00,-0.9,yes,no,yes,48737,O-Buoy,Bigelow,unknown,North
2015-09-05T06:01:26Z,1441432886,2015,6,1,248.251,248.251,82.76014,124.36771,985.0,-999.00,0.4,yes,no,yes,48737,O-Buoy,Bigelow,unknown,North
2015-09-05T07:00:28Z,1441436429,2015,7,1,248.292,248.292,82.75697,124.39974,986.0,-999.00,3.9,yes,no,yes,48737,O-Buoy,Bigelow,unknown,North
2015-09-05T08:00:57Z,1441440058,2015,8,1,248.334,248.334,82.75255,124.43317,987.0,-999.00,3.0,yes,no,yes,48737,O-Buoy,Bigelow,unknown,North
2015-09-05T09:01:26Z,1441443686,2015,9,1,248.376,248.376,82.74782,124.46938,989.0,-999.00,-1.9,yes,no,yes,48737,O-Buoy,Bigelow,unknown,North
2015-09-05T10:00:28Z,1441447229,2015,10,1,248.417,248.417,82.74297,124.50227,990.0,-999.00,-2.2,yes,no,yes,48737,O-Buoy,Bigelow,unknown,North
2015-09-05T11:00:57Z,1441450858,2015,11,1,248.459,248.459,82.73862,124.53015,991.0,-999.00,-2.3,yes,no,yes,48737,O-Buoy,Bigelow,unknown,North
2015-09-05T12:01:26Z,1441454486,2015,12,1,248.501,248.501,82.73442,124.55032,992.0,-999.00,-3.3,yes,no,yes,48737,O-Buoy,Bigelow,unknown,North
2015-09-05T13:00:28Z,1441458029,2015,13,1,248.542,248.542,82.73132,124.56772,993.0,-999.00,-2.4,yes,no,yes,48737,O-Buoy,Bigelow,unknown,North
2015-09-05T14:00:57Z,1441461658,2015,14,1,248.584,248.584,82.72858,124.58075,993.0,-999.00,-2.2,yes,no,yes,48737,O-Buoy,Bigelow,unknown,North
2015-09-05T15:01:26Z,1441465286,2015,15,1,248.626,248.626,82.72617,124.59041,994.0,-999.00,-2.1,yes,no,yes,48737,O-Buoy,Bigelow,unknown,North
2015-09-05T16:00:28Z,1441468829,2015,16,1,248.667,248.667,82.72445,124.59843,995.0,-999.00,-2.1,yes,no,yes,48737,O-Buoy,Bigelow,unknown,North
2015-09-05T17:00:57Z,1441472458,2015,17,1,248.709,248.709,82.72332,124.60542,996.0,-999.00,-2.0,yes,no,yes,48737,O-Buoy,Bigelow,unknown,North
2015-09-05T18:01:26Z,1441476086,2015,18,1,248.751,248.751,82.72188,124.61053,997.0,-999.00,-2.1,yes,no,yes,48737,O-Buoy,Bigelow,unknown,North
2015-09-05T19:00:28Z,1441479629,2015,19,1,248.792,248.792,82.72021,124.61072,998.0,-999.00,-2.5,yes,no,yes,48737,O-Buoy,Bigelow,unknown,North
2015-09-05T20:00:57Z,1441483258,2015,20,1,248.834,248.834,82.71828,124.60639,998.0,-999.00,-2.7,yes,no,yes,48737,O-Buoy,Bigelow,unknown,North
2015-09-05T21:01:26Z,1441486886,2015,21,1,248.876,248.876,82.71601,124.60113,999.0,-999.00,-2.7,yes,no,yes,48737,O-Buoy,Bigelow,unknown,North
2015-09-05T22:00:28Z,1441490429,2015,22,1,248.917,248.917,82.71352,124.59216,1000.0,-999.00,-2.9,yes,no,yes,48737,O-Buoy,Bigelow,unknown,North
2015-09-05T23:00:57Z,1441494058,2015,23,1,248.959,248.959,82.71043,124.57721,1001.0,-999.00,-2.9,yes,no,yes,48737,O-Buoy,Bigelow,unknown,North
2015-09-06T00:01:26Z,1441497686,2015,0,1,249.001,249.001,82.70755,124.55801,1002.0,-999.00,-3.2,yes,no,yes,48737,O-Buoy,Bigelow,unknown,North
2015-09-06T01:00:28Z,1441501229,2015,1,1,249.042,249.042,82.7054,124.53855,1003.0,-999.00,-3.2,yes,no,yes,48737,O-Buoy,Bigelow,unknown,North
2015-09-06T02:00:57Z,1441504858,2015,2,1,249.084,249.084,82.70407,124.52719,1004.0,-999.00,-2.8,yes,no,yes,48737,O-Buoy,Bigelow,unknown,North
2015-09-06T03:01:26Z,1441508486,2015,3,1,249.126,249.126,82.70449,124.51599,1004.0,-999.00,-2.8,yes,no,yes,48737,O-Buoy,Bigelow,unknown,North
2015-09-06T04:00:28Z,1441512029,2015,4,1,249.167,249.167,82.7048,124.51177,1005.0,-999.00,-2.8,yes,no,yes,48737,O-Buoy,Bigelow,unknown,North
2015-09-06T05:00:57Z,1441515658,2015,5,1,249.209,249.209,82.70487,124.50925,1006.0,-999.00,-3.1,yes,no,yes,48737,O-Buoy,Bigelow,unknown,North
2015-09-06T06:01:26Z,1441519286,2015,6,1,249.251,249.251,82.70508,124.50991,1007.0,-999.00,-3.3,yes,no,yes,48737,O-Buoy,Bigelow,unknown,North
2015-09-06T07:00:28Z,1441522829,2015,7,1,249.292,249.292,82.70536,124.5143,1007.0,-999.00,-3.2,yes,no,yes,48737,O-Buoy,Bigelow,unknown,North
2015-09-06T08:00:57Z,1441526458,2015,8,1,249.334,249.334,82.70535,124.52011,1008.0,-999.00,-3.1,yes,no,yes,48737,O-Buoy,Bigelow,unknown,North
2015-09-06T09:01:26Z,1441530086,2015,9,1,249.376,249.376,82.70504,124.52473,1009.0,-999.00,-3.2,yes,no,yes,48737,O-Buoy,Bigelow,unknown,North
2015-09-06T10:00:28Z,1441533629,2015,10,1,249.417,249.417,82.70484,124.52814,1010.0,-999.00,-3.1,yes,no,yes,48737,O-Buoy,Bigelow,unknown,North
2015-09-06T11:00:57Z,1441537258,2015,11,1,249.459,249.459,82.70507,124.53039,1010.0,-999.00,-3.1,yes,no,yes,48737,O-Buoy,Bigelow,unknown,North
2015-09-06T12:01:26Z,1441540886,2015,12,1,249.501,249.501,82.70532,124.53372,1010.0,-999.00,-3.0,yes,no,yes,48737,O-Buoy,Bigelow,unknown,North
2015-09-06T13:00:28Z,1441544429,2015,13,1,249.542,249.542,82.70588,124.53678,1011.0,-999.00,-3.0,yes,no,yes,48737,O-Buoy,Bigelow,unknown,North
2015-09-06T14:00:57Z,1441548058,2015,14,1,249.584,249.584,82.7065,124.53912,1011.0,-999.00,-3.1,yes,no,yes,48737,O-Buoy,Bigelow,unknown,North
2015-09-06T15:01:26Z,1441551686,2015,15,1,249.626,249.626,82.70725,124.54073,1011.0,-999.00,-3.0,yes,no,yes,48737,O-Buoy,Bigelow,unknown,North
2015-09-06T16:00:28Z,1441555229,2015,16,1,249.667,249.667,82.70784,124.54209,1012.0,-999.00,-3.0,yes,no,yes,48737,O-Buoy,Bigelow,unknown,North
2015-09-06T17:00:57Z,1441558858,2015,17,1,249.709,249.709,82.70836,124.5442,1012.0,-999.00,-3.1,yes,no,yes,48737,O-Buoy,Bigelow,unknown,North
2015-09-06T18:01:26Z,1441562486,2015,18,1,249.751,249.751,82.70893,124.54842,1012.0,-999.00,-4.0,yes,no,yes,48737,O-Buoy,Bigelow,unknown,North
2015-09-06T19:00:28Z,1441566029,2015,19,1,249.792,249.792,82.70932,124.55627,1012.0,-999.00,-3.4,yes,no,yes,48737,O-Buoy,Bigelow,unknown,North
2015-09-06T20:00:57Z,1441569658,2015,20,1,249.834,249.834,82.70891,124.56721,1013.0,-999.00,-3.4,yes,no,yes,48737,O-Buoy,Bigelow,unknown,North
2015-09-06T21:01:26Z,1441573286,2015,21,1,249.876,249.876,82.70788,124.5769,1013.0,-999.00,-3.7,yes,no,yes,48737,O-Buoy,Bigelow,unknown,North
2015-09-06T22:00:28Z,1441576829,2015,22,1,249.917,249.917,82.70666,124.58237,1013.0,-999.00,-3.8,yes,no,yes,48737,O-Buoy,Bigelow,unknown,North
2015-09-06T23:00:57Z,1441580458,2015,23,1,249.959,249.959,82.70582,124.58106,1013.0,-999.00,-3.9,yes,no,yes,48737,O-Buoy,Bigelow,unknown,North
2015-09-07T00:01:26Z,1441584086,2015,0,1,250.001,250.001,82.70545,124.57853,1013.0,-999.00,-3.8,yes,no,yes,48737,O-Buoy,Bigelow,unknown,North
2015-09-07T01:00:28Z,1441587629,2015,1,1,250.042,250.042,82.70496,124.57414,1013.0,-999.00,-4.3,yes,no,yes,48737,O-Buoy,Bigelow,unknown,North
2015-09-07T02:00:57Z,1441591258,2015,2,1,250.084,250.084,82.70461,124.56432,1014.0,-999.00,-4.9,yes,no,yes,48737,O-Buoy,Bigelow,unknown,North
2015-09-07T03:01:26Z,1441594886,2015,3,1,250.126,250.126,82.70514,124.54752,1014.0,-999.00,-5.3,yes,no,yes,48737,O-Buoy,Bigelow,unknown,North
2015-09-07T04:00:28Z,1441598429,2015,4,1,250.167,250.167,82.70637,124.5336,1014.0,-999.00,-5.7,yes,no,yes,48737,O-Buoy,Bigelow,unknown,North
2015-09-07T05:00:57Z,1441602058,2015,5,1,250.209,250.209,82.70773,124.52585,1014.0,-999.00,-6.1,yes,no,yes,48737,O-Buoy,Bigelow,unknown,North
2015-09-07T06:01:26Z,1441605686,2015,6,1,250.251,250.251,82.70904,124.5202,1014.0,-999.00,-6.0,yes,no,yes,48737,O-Buoy,Bigelow,unknown,North
2015-09-07T07:00:28Z,1441609229,2015,7,1,250.292,250.292,82.71003,124.51369,1014.0,-999.00,-5.6,yes,no,yes,48737,O-Buoy,Bigelow,unknown,North
2015-09-07T08:00:57Z,1441612858,2015,8,1,250.334,250.334,82.71055,124.5059,1014.0,-999.00,-6.1,yes,no,yes,48737,O-Buoy,Bigelow,unknown,North
2015-09-07T09:01:26Z,1441616486,2015,9,1,250.376,250.376,82.71066,124.4983,1014.0,-999.00,-5.6,yes,no,yes,48737,O-Buoy,Bigelow,unknown,North
2015-09-07T10:00:28Z,1441620029,2015,10,1,250.417,250.417,82.71016,124.48727,1015.0,-999.00,-6.5,yes,no,yes,48737,O-Buoy,Bigelow,unknown,North
2015-09-07T11:00:57Z,1441623658,2015,11,1,250.459,250.459,82.7095,124.46765,1015.0,-999.00,-6.7,yes,no,yes,48737,O-Buoy,Bigelow,unknown,North
2015-09-07T12:01:26Z,1441627286,2015,12,1,250.501,250.501,82.70914,124.44424,1015.0,-999.00,-6.7,yes,no,yes,48737,O-Buoy,Bigelow,unknown,North
2015-09-07T13:00:28Z,1441630829,2015,13,1,250.542,250.542,82.70902,124.42021,1015.0,-999.00,-7.0,yes,no,yes,48737,O-Buoy,Bigelow,unknown,North
2015-09-07T14:00:57Z,1441634458,2015,14,1,250.584,250.584,82.7093,124.39475,1015.0,-999.00,-7.0,yes,no,yes,48737,O-Buoy,Bigelow,unknown,North
2015-09-07T15:01:26Z,1441638086,2015,15,1,250.626,250.626,82.70979,124.37067,1016.0,-999.00,-6.9,yes,no,yes,48737,O-Buoy,Bigelow,unknown,North
2015-09-07T16:00:28Z,1441641629,2015,16,1,250.667,250.667,82.71075,124.35074,1016.0,-999.00,-6.2,yes,no,yes,48737,O-Buoy,Bigelow,unknown,North
2015-09-07T17:00:57Z,1441645258,2015,17,1,250.709,250.709,82.71198,124.33178,1016.0,-999.00,-6.2,yes,no,yes,48737,O-Buoy,Bigelow,unknown,North
2015-09-07T18:01:26Z,1441648886,2015,18,1,250.751,250.751,82.71297,124.31569,1016.0,-999.00,-6.1,yes,no,yes,48737,O-Buoy,Bigelow,unknown,North
2015-09-07T19:00:28Z,1441652429,2015,19,1,250.792,250.792,82.71382,124.30553,1017.0,-999.00,-6.1,yes,no,yes,48737,O-Buoy,Bigelow,unknown,North
2015-09-07T20:00:57Z,1441656058,2015,20,1,250.834,250.834,82.71415,124.29683,1017.0,-999.00,-5.9,yes,no,yes,48737,O-Buoy,Bigelow,unknown,North
2015-09-07T21:01:26Z,1441659686,2015,21,1,250.876,250.876,82.71415,124.28828,1017.0,-999.00,-5.9,yes,no,yes,48737,O-Buoy,Bigelow,unknown,North
2015-09-07T22:00:28Z,1441663229,2015,22,1,250.917,250.917,82.71394,124.27986,1018.0,-999.00,-5.8,yes,no,yes,48737,O-Buoy,Bigelow,unknown,North
2015-09-07T23:00:57Z,1441666858,2015,23,1,250.959,250.959,82.71371,124.27029,1018.0,-999.00,-5.8,yes,no,yes,48737,O-Buoy,Bigelow,unknown,North
2015-09-08T00:01:26Z,1441670486,2015,0,1,251.001,251.001,82.71356,124.25974,1018.0,-999.00,-5.8,yes,no,yes,48737,O-Buoy,Bigelow,unknown,North
2015-09-08T01:00:28Z,1441674029,2015,1,1,251.042,251.042,82.71372,124.2466,1018.0,-999.00,-5.8,yes,no,yes,48737,O-Buoy,Bigelow,unknown,North
2015-09-08T02:00:57Z,1441677658,2015,2,1,251.084,251.084,82.71442,124.2312,1018.0,-999.00,-5.5,yes,no,yes,48737,O-Buoy,Bigelow,unknown,North
2015-09-08T03:01:26Z,1441681286,2015,3,1,251.126,251.126,82.71574,124.21651,1019.0,-999.00,-5.2,yes,no,yes,48737,O-Buoy,Bigelow,unknown,North
2015-09-08T04:00:28Z,1441684829,2015,4,1,251.167,251.167,82.71754,124.20458,1019.0,-999.00,-4.8,yes,no,yes,48737,O-Buoy,Bigelow,unknown,North
2015-09-08T05:00:57Z,1441688458,2015,5,1,251.209,251.209,82.71957,124.19833,1019.0,-999.00,-4.6,yes,no,yes,48737,O-Buoy,Bigelow,unknown,North
2015-09-08T06:01:26Z,1441692086,2015,6,1,251.251,251.251,82.72154,124.19683,1019.0,-999.00,-4.4,yes,no,yes,48737,O-Buoy,Bigelow,unknown,North
2015-09-08T07:00:28Z,1441695629,2015,7,1,251.292,251.292,82.72333,124.20024,1019.0,-999.00,-4.2,yes,no,yes,48737,O-Buoy,Bigelow,unknown,North
2015-09-08T08:00:57Z,1441699258,2015,8,1,251.334,251.334,82.72485,124.20683,1019.0,-999.00,-4.1,yes,no,yes,48737,O-Buoy,Bigelow,unknown,North
2015-09-08T09:01:26Z,1441702886,2015,9,1,251.376,251.376,82.7257,124.21416,1019.0,-999.00,-4.0,yes,no,yes,48737,O-Buoy,Bigelow,unknown,North
2015-09-08T10:00:28Z,1441706429,2015,10,1,251.417,251.417,82.72617,124.22004,1019.0,-999.00,-3.8,yes,no,yes,48737,O-Buoy,Bigelow,unknown,North
2015-09-08T11:00:57Z,1441710058,2015,11,1,251.459,251.459,82.72653,124.22436,1019.0,-999.00,-3.6,yes,no,yes,48737,O-Buoy,Bigelow,unknown,North
2015-09-08T12:01:26Z,1441713686,2015,12,1,251.501,251.501,82.7269,124.22781,1019.0,-999.00,-3.4,yes,no,yes,48737,O-Buoy,Bigelow,unknown,North
2015-09-08T13:00:28Z,1441717229,2015,13,1,251.542,251.542,82.72729,124.22948,1019.0,-999.00,-3.1,yes,no,yes,48737,O-Buoy,Bigelow,unknown,North
2015-09-08T14:00:57Z,1441720858,2015,14,1,251.584,251.584,82.72805,124.22997,1018.0,-999.00,-2.9,yes,no,yes,48737,O-Buoy,Bigelow,unknown,North
2015-09-08T15:01:26Z,1441724486,2015,15,1,251.626,251.626,82.72922,124.23133,1018.0,-999.00,-2.8,yes,no,yes,48737,O-Buoy,Bigelow,unknown,North
2015-09-08T16:00:28Z,1441728029,2015,16,1,251.667,251.667,82.7306,124.23583,1018.0,-999.00,-2.8,yes,no,yes,48737,O-Buoy,Bigelow,unknown,North
2015-09-08T17:00:57Z,1441731658,2015,17,1,251.709,251.709,82.73209,124.24586,1017.0,-999.00,-2.9,yes,no,yes,48737,O-Buoy,Bigelow,unknown,North
2015-09-08T18:01:26Z,1441735286,2015,18,1,251.751,251.751,82.73345,124.26244,1017.0,-999.00,-3.6,yes,no,yes,48737,O-Buoy,Bigelow,unknown,North
2015-09-08T19:00:28Z,1441738829,2015,19,1,251.792,251.792,82.7345,124.28377,1017.0,-999.00,-3.5,yes,no,yes,48737,O-Buoy,Bigelow,unknown,North
2015-09-08T20:00:57Z,1441742458,2015,20,1,251.834,251.834,82.73504,124.30808,1017.0,-999.00,-3.3,yes,no,yes,48737,O-Buoy,Bigelow,unknown,North
2015-09-08T21:01:26Z,1441746086,2015,21,1,251.876,251.876,82.73524,124.33043,1016.0,-999.00,-3.2,yes,no,yes,48737,O-Buoy,Bigelow,unknown,North
2015-09-08T22:00:28Z,1441749629,2015,22,1,251.917,251.917,82.7356,124.34972,1016.0,-999.00,-2.9,yes,no,yes,48737,O-Buoy,Bigelow,unknown,North
2015-09-08T23:00:57Z,1441753258,2015,23,1,251.959,251.959,82.73637,124.36723,1016.0,-999.00,-2.8,yes,no,yes,48737,O-Buoy,Bigelow,unknown,North
2015-09-09T00:01:26Z,1441756886,2015,0,1,252.001,252.001,82.73785,124.37936,1015.0,-999.00,-2.8,yes,no,yes,48737,O-Buoy,Bigelow,unknown,North
2015-09-09T01:00:28Z,1441760429,2015,1,1,252.042,252.042,82.74043,124.38916,1015.0,-999.00,-2.3,yes,no,yes,48737,O-Buoy,Bigelow,unknown,North
2015-09-09T02:00:57Z,1441764058,2015,2,1,252.084,252.084,82.74417,124.40231,1014.0,-999.00,-1.9,yes,no,yes,48737,O-Buoy,Bigelow,unknown,North
2015-09-09T03:01:26Z,1441767686,2015,3,1,252.126,252.126,82.74915,124.42255,1013.0,-999.00,-1.7,yes,no,yes,48737,O-Buoy,Bigelow,unknown,North
2015-09-09T04:00:28Z,1441771229,2015,4,1,252.167,252.167,82.7547,124.4523,1013.0,-999.00,-1.6,yes,no,yes,48737,O-Buoy,Bigelow,unknown,North
2015-09-09T05:00:57Z,1441774858,2015,5,1,252.209,252.209,82.76073,124.49281,1012.0,-999.00,-1.5,yes,no,yes,48737,O-Buoy,Bigelow,unknown,North
2015-09-09T06:01:26Z,1441778486,2015,6,1,252.251,252.251,82.76632,124.54184,1012.0,-999.00,-1.9,yes,no,yes,48737,O-Buoy,Bigelow,unknown,North
2015-09-09T07:00:28Z,1441782029,2015,7,1,252.292,252.292,82.77058,124.59631,1012.0,-999.00,-1.7,yes,no,yes,48737,O-Buoy,Bigelow,unknown,North
2015-09-09T08:00:57Z,1441785658,2015,8,1,252.334,252.334,82.77391,124.65249,1011.0,-999.00,-1.6,yes,no,yes,48737,O-Buoy,Bigelow,unknown,North
2015-09-09T09:01:26Z,1441789286,2015,9,1,252.376,252.376,82.77653,124.70639,1011.0,-999.00,-1.7,yes,no,yes,48737,O-Buoy,Bigelow,unknown,North
2015-09-09T10:00:28Z,1441792829,2015,10,1,252.417,252.417,82.77837,124.7563,1011.0,-999.00,-1.5,yes,no,yes,48737,O-Buoy,Bigelow,unknown,North
2015-09-09T11:00:57Z,1441796458,2015,11,1,252.459,252.459,82.77972,124.80119,1010.0,-999.00,-1.3,yes,no,yes,48737,O-Buoy,Bigelow,unknown,North
2015-09-09T12:01:26Z,1441800086,2015,12,1,252.501,252.501,82.7809,124.83984,1010.0,-999.00,-1.1,yes,no,yes,48737,O-Buoy,Bigelow,unknown,North
2015-09-09T13:00:28Z,1441803629,2015,13,1,252.542,252.542,82.78268,124.87263,1009.0,-999.00,-1.1,yes,no,yes,48737,O-Buoy,Bigelow,unknown,North
2015-09-09T14:00:57Z,1441807258,2015,14,1,252.584,252.584,82.78525,124.90334,1009.0,-999.00,-1.1,yes,no,yes,48737,O-Buoy,Bigelow,unknown,North
2015-09-09T15:01:26Z,1441810886,2015,15,1,252.626,252.626,82.78894,124.93422,1009.0,-999.00,-1.3,yes,no,yes,48737,O-Buoy,Bigelow,unknown,North
2015-09-09T16:00:28Z,1441814429,2015,16,1,252.667,252.667,82.79328,124.96386,1008.0,-999.00,-1.3,yes,no,yes,48737,O-Buoy,Bigelow,unknown,North
2015-09-09T17:00:57Z,1441818058,2015,17,1,252.709,252.709,82.79812,124.99645,1008.0,-999.00,-1.3,yes,no,yes,48737,O-Buoy,Bigelow,unknown,North
2015-09-09T18:01:26Z,1441821686,2015,18,1,252.751,252.751,82.8035,125.03582,1007.0,-999.00,-1.4,yes,no,yes,48737,O-Buoy,Bigelow,unknown,North
2015-09-09T19:00:28Z,1441825229,2015,19,1,252.792,252.792,82.80888,125.08464,1007.0,-999.00,-1.6,yes,no,yes,48737,O-Buoy,Bigelow,unknown,North
2015-09-09T20:00:57Z,1441828858,2015,20,1,252.834,252.834,82.81321,125.13838,1006.0,-999.00,-1.5,yes,no,yes,48737,O-Buoy,Bigelow,unknown,North
2015-09-09T21:01:26Z,1441832486,2015,21,1,252.876,252.876,82.81658,125.19305,1006.0,-999.00,-1.1,yes,no,yes,48737,O-Buoy,Bigelow,unknown,North
2015-09-09T22:00:28Z,1441836029,2015,22,1,252.917,252.917,82.81896,125.24603,1005.0,-999.00,-0.9,yes,no,yes,48737,O-Buoy,Bigelow,unknown,North
2015-09-09T23:00:57Z,1441839658,2015,23,1,252.959,252.959,82.8204,125.29329,1005.0,-999.00,-0.6,yes,no,yes,48737,O-Buoy,Bigelow,unknown,North
2015-09-10T00:01:26Z,1441843286,2015,0,1,253.001,253.001,82.8212,125.33243,1005.0,-999.00,-0.5,yes,no,yes,48737,O-Buoy,Bigelow,unknown,North
2015-09-10T01:00:28Z,1441846829,2015,1,1,253.042,253.042,82.82203,125.36065,1004.0,-999.00,-1.0,yes,no,yes,48737,O-Buoy,Bigelow,unknown,North
2015-09-10T02:00:57Z,1441850458,2015,2,1,253.084,253.084,82.82375,125.37855,1004.0,-999.00,-0.9,yes,no,yes,48737,O-Buoy,Bigelow,unknown,North
2015-09-10T03:01:26Z,1441854086,2015,3,1,253.126,253.126,82.82744,125.39651,1003.0,-999.00,-0.7,yes,no,yes,48737,O-Buoy,Bigelow,unknown,North
2015-09-10T04:00:28Z,1441857629,2015,4,1,253.167,253.167,82.83243,125.42117,1003.0,-999.00,-0.6,yes,no,yes,48737,O-Buoy,Bigelow,unknown,North
2015-09-10T05:00:57Z,1441861258,2015,5,1,253.209,253.209,82.83852,125.45419,1002.0,-999.00,-0.3,yes,no,yes,48737,O-Buoy,Bigelow,unknown,North
2015-09-10T06:01:26Z,1441864886,2015,6,1,253.251,253.251,82.84513,125.50126,1002.0,-999.00,-0.6,yes,no,yes,48737,O-Buoy,Bigelow,unknown,North
2015-09-10T07:00:28Z,1441868429,2015,7,1,253.292,253.292,82.85133,125.55914,1002.0,-999.00,-0.5,yes,no,yes,48737,O-Buoy,Bigelow,unknown,North
2015-09-10T08:00:57Z,1441872058,2015,8,1,253.334,253.334,82.85624,125.62557,1001.0,-999.00,-0.5,yes,no,yes,48737,O-Buoy,Bigelow,unknown,North
2015-09-10T09:01:26Z,1441875686,2015,9,1,253.376,253.376,82.85969,125.69351,1001.0,-999.00,-0.5,yes,no,yes,48737,O-Buoy,Bigelow,unknown,North
2015-09-10T10:00:28Z,1441879229,2015,10,1,253.417,253.417,82.86188,125.75857,1001.0,-999.00,-0.5,yes,no,yes,48737,O-Buoy,Bigelow,unknown,North
2015-09-10T11:00:57Z,1441882858,2015,11,1,253.459,253.459,82.86282,125.81265,1000.0,-999.00,-0.6,yes,no,yes,48737,O-Buoy,Bigelow,unknown,North
2015-09-10T12:01:26Z,1441886486,2015,12,1,253.501,253.501,82.86407,125.85123,1000.0,-999.00,-0.8,yes,no,yes,48737,O-Buoy,Bigelow,unknown,North
2015-09-10T13:00:28Z,1441890029,2015,13,1,253.542,253.542,82.86694,125.87998,999.0,-999.00,-1.4,yes,no,yes,48737,O-Buoy,Bigelow,unknown,North
2015-09-10T14:00:57Z,1441893658,2015,14,1,253.584,253.584,82.87122,125.90191,999.0,-999.00,-0.9,yes,no,yes,48737,O-Buoy,Bigelow,unknown,North